| time (UTC) | temp C | wind direction | speed KPH | gust KPH | rain 1hr cm | rain 24hr cm | rain mn cm | humidity % | barometer mb |
| 20260506002504 | 10 | 286 | 0.0 | 1.6 | 0.00 | 0.46 | 0.00 | 97 | 1013.9 |
| 20260506001504 | 10 | 281 | 3.2 | 8.0 | 0.00 | 0.46 | 0.00 | 97 | 1013.9 |
| 20260506001004 | 10 | 233 | 0.0 | 1.6 | 0.00 | 0.46 | 0.00 | 97 | 1014.2 |
| 20260506000504 | 10 | 341 | 0.0 | 1.6 | 0.00 | 0.46 | 0.00 | 97 | 1014.2 |
| 20260506000004 | 10 | 276 | 0.0 | 0.0 | 0.00 | 0.46 | 0.00 | 97 | 1014.2 |
| 20260505235504 | 10 | 277 | 0.0 | 1.6 | 0.00 | 0.46 | 0.00 | 97 | 1014.2 |
| 20260505235004 | 10 | 292 | 0.0 | 4.8 | 0.00 | 0.46 | 0.00 | 97 | 1014.2 |
| 20260505234003 | 10 | 240 | 0.0 | 1.6 | 0.00 | 0.46 | 0.00 | 97 | 1014.6 |
| 20260505233519 | 10 | 114 | 0.0 | 0.0 | 0.00 | 0.46 | 0.00 | 97 | 1014.6 |
| 20260505232504 | 10 | 112 | 0.0 | 0.0 | 0.00 | 0.46 | 0.00 | 97 | 1014.2 |
| 20260505232004 | 10 | 122 | 0.0 | 0.0 | 0.00 | 0.46 | 0.00 | 97 | 1014.6 |
| 20260505231504 | 10 | 223 | 0.0 | 3.2 | 0.00 | 0.46 | 0.00 | 97 | 1014.2 |
| 20260505231004 | 11 | 282 | 1.6 | 3.2 | 0.00 | 0.46 | 0.00 | 96 | 1014.6 |
| 20260505230504 | 11 | 255 | 0.0 | 1.6 | 0.00 | 0.46 | 0.00 | 96 | 1014.2 |
| 20260505230004 | 11 | 289 | 3.2 | 9.7 | 0.00 | 0.46 | 0.00 | 96 | 1014.3 |
| 20260505225504 | 11 | 297 | 4.8 | 9.7 | 0.00 | 0.46 | 0.00 | 97 | 1014.6 |
| 20260505225004 | 11 | 266 | 1.6 | 3.2 | 0.00 | 0.46 | 0.00 | 97 | 1014.2 |
| 20260505224504 | 11 | 237 | 0.0 | 3.2 | 0.00 | 0.46 | 0.00 | 97 | 1014.2 |
| 20260505224004 | 11 | 294 | 1.6 | 3.2 | 0.00 | 0.46 | 0.00 | 97 | 1014.2 |
| 20260505223504 | 11 | 295 | 1.6 | 4.8 | 0.00 | 0.46 | 0.00 | 97 | 1014.2 |
| 20260505222504 | 11 | 162 | 0.0 | 1.6 | 0.00 | 0.46 | 0.00 | 97 | 1014.6 |
| 20260505222004 | 11 | 226 | 0.0 | 1.6 | 0.00 | 0.46 | 0.00 | 97 | 1014.6 |
| 20260505221504 | 11 | 297 | 0.0 | 1.6 | 0.00 | 0.46 | 0.00 | 97 | 1014.6 |
| 20260505221004 | 11 | 163 | 0.0 | 1.6 | 0.03 | 0.46 | 0.00 | 97 | 1014.7 |
| 20260505220504 | 11 | 159 | 1.6 | 8.0 | 0.03 | 0.46 | 0.00 | 97 | 1014.9 |
| 20260505220004 | 11 | 334 | 3.2 | 8.0 | 0.10 | 0.46 | 0.00 | 97 | 1014.9 |
| 20260505215004 | 11 | 15 | 0.0 | 0.0 | 0.18 | 0.46 | 0.46 | 97 | 1014.9 |
| 20260505214504 | 11 | 236 | 0.0 | 0.0 | 0.18 | 0.46 | 0.46 | 97 | 1014.9 |
| 20260505214004 | 11 | 172 | 0.0 | 0.0 | 0.25 | 0.46 | 0.46 | 97 | 1014.7 |
| 20260505212504 | 11 | 137 | 0.0 | 3.2 | 0.33 | 0.46 | 0.46 | 96 | 1014.9 |
| 20260505212004 | 11 | 81 | 1.6 | 3.2 | 0.41 | 0.46 | 0.46 | 96 | 1014.9 |
| 20260505211504 | 12 | 231 | 0.0 | 1.6 | 0.41 | 0.46 | 0.46 | 96 | 1014.9 |
| 20260505210503 | 12 | 326 | 8.0 | 11.3 | 0.41 | 0.43 | 0.43 | 96 | 1014.9 |
| 20260505210004 | 12 | 317 | 3.2 | 8.0 | 0.33 | 0.36 | 0.36 | 96 | 1014.9 |
| 20260505205004 | 12 | 275 | 0.0 | 0.0 | 0.25 | 0.28 | 0.28 | 95 | 1014.6 |
| 20260505204504 | 12 | 292 | 0.0 | 0.0 | 0.25 | 0.28 | 0.28 | 94 | 1014.6 |
| 20260505204004 | 12 | 299 | 1.6 | 4.8 | 0.18 | 0.20 | 0.20 | 94 | 1014.6 |
| 20260505202504 | 12 | 314 | 0.0 | 9.7 | 0.10 | 0.13 | 0.13 | 92 | 1014.2 |
| 20260505202004 | 13 | 252 | 8.0 | 9.7 | 0.03 | 0.05 | 0.05 | 90 | 1014.2 |
| 20260505201504 | 13 | 263 | 8.0 | 9.7 | 0.03 | 0.05 | 0.05 | 89 | 1014.1 |
| 20260505201004 | 13 | 289 | 8.0 | 11.3 | 0.03 | 0.03 | 0.03 | 87 | 1013.9 |
| 20260505200504 | 13 | 280 | 9.7 | 11.3 | 0.03 | 0.03 | 0.03 | 86 | 1013.9 |
| 20260505195004 | 13 | 274 | 3.2 | 8.0 | 0.03 | 0.03 | 0.03 | 86 | 1013.6 |
| 20260505194504 | 13 | 278 | 4.8 | 11.3 | 0.03 | 0.03 | 0.03 | 86 | 1013.5 |
| 20260505194004 | 13 | 270 | 9.7 | 11.3 | 0.03 | 0.03 | 0.03 | 86 | 1013.2 |
| 20260505193504 | 13 | 277 | 4.8 | 4.8 | 0.03 | 0.03 | 0.03 | 87 | 1013.2 |
| 20260505193004 | 13 | 287 | 0.0 | 0.0 | 0.03 | 0.03 | 0.03 | 86 | 1012.9 |
| 20260505192504 | 14 | 358 | 0.0 | 0.0 | 0.03 | 0.03 | 0.03 | 84 | 1012.5 |
| 20260505192004 | 14 | 328 | 0.0 | 0.0 | 0.03 | 0.03 | 0.03 | 83 | 1012.5 |
| 20260505191004 | 15 | 276 | 3.2 | 4.8 | 0.00 | 0.00 | 0.00 | 77 | 1012.5 |
| 20260505190504 | 15 | 276 | 3.2 | 3.2 | 0.00 | 0.00 | 0.00 | 77 | 1012.5 |
| 20260505190004 | 15 | 276 | 3.2 | 3.2 | 0.00 | 0.00 | 0.00 | 73 | 1012.2 |
| 20260505185504 | 15 | 277 | 1.6 | 3.2 | 0.00 | 0.00 | 0.00 | 71 | 1012.4 |
| 20260505184503 | 15 | 257 | 3.2 | 4.8 | 0.00 | 0.00 | 0.00 | 69 | 1012.2 |
| 20260505184004 | 16 | 259 | 0.0 | 0.0 | 0.00 | 0.00 | 0.00 | 70 | 1012.2 |
| 20260505183504 | 16 | 289 | 0.0 | 0.0 | 0.00 | 0.00 | 0.00 | 69 | 1012.2 |
| 20260505183004 | 16 | 278 | 3.2 | 3.2 | 0.00 | 0.00 | 0.00 | 69 | 1012.2 |
| 20260505182505 | 16 | 274 | 3.2 | 8.0 | 0.00 | 0.00 | 0.00 | 69 | 1012.2 |
| 20260505182004 | 16 | 300 | 3.2 | 8.0 | 0.00 | 0.00 | 0.00 | 67 | 1012.2 |
| 20260505181504 | 16 | 288 | 4.8 | 8.0 | 0.00 | 0.00 | 0.00 | 65 | 1012.2 |
| 20260505181004 | 16 | 288 | 4.8 | 8.0 | 0.00 | 0.00 | 0.00 | 65 | 1012.2 |
| 20260505180005 | 16 | 252 | 3.2 | 9.7 | 0.00 | 0.00 | 0.00 | 68 | 1012.2 |
| 20260505175503 | 16 | 252 | 3.2 | 9.7 | 0.00 | 0.00 | 0.00 | 68 | 1012.2 |
| 20260505175004 | 16 | 276 | 0.0 | 3.2 | 0.00 | 0.00 | 0.00 | 69 | 1011.9 |
| 20260505174004 | 16 | 269 | 1.6 | 3.2 | 0.00 | 0.00 | 0.00 | 68 | 1012.2 |
| 20260505173505 | 17 | 263 | 1.6 | 4.8 | 0.00 | 0.00 | 0.00 | 67 | 1011.9 |
| 20260505173004 | 17 | 348 | 1.6 | 4.8 | 0.00 | 0.00 | 0.00 | 66 | 1011.9 |
| 20260505172504 | 17 | 348 | 1.6 | 4.8 | 0.00 | 0.00 | 0.00 | 66 | 1011.9 |
| 20260505171504 | 17 | 292 | 8.0 | 9.7 | 0.00 | 0.00 | 0.00 | 67 | 1011.9 |
| 20260505171004 | 17 | 292 | 6.4 | 9.7 | 0.00 | 0.00 | 0.00 | 67 | 1011.9 |
| 20260505170504 | 17 | 259 | 1.6 | 4.8 | 0.00 | 0.00 | 0.00 | 69 | 1011.9 |
| 20260505170004 | 18 | 274 | 1.6 | 4.8 | 0.00 | 0.00 | 0.00 | 70 | 1011.5 |
| 20260505165505 | 18 | 274 | 1.6 | 4.8 | 0.00 | 0.00 | 0.00 | 70 | 1011.5 |
| 20260505165005 | 18 | 59 | 3.2 | 8.0 | 0.00 | 0.00 | 0.00 | 70 | 1011.5 |
| 20260505164504 | 18 | 341 | 3.2 | 8.0 | 0.00 | 0.00 | 0.00 | 70 | 1011.5 |
| 20260505164005 | 18 | 341 | 3.2 | 8.0 | 0.00 | 0.00 | 0.00 | 70 | 1011.5 |
| 20260505163504 | 18 | 271 | 1.6 | 11.3 | 0.00 | 0.00 | 0.00 | 69 | 1011.9 |
| 20260505163004 | 18 | 259 | 8.0 | 11.3 | 0.00 | 0.00 | 0.00 | 67 | 1011.9 |
| 20260505162504 | 18 | 259 | 6.4 | 11.3 | 0.00 | 0.00 | 0.00 | 67 | 1011.9 |
| 20260505162004 | 19 | 116 | 0.0 | 0.0 | 0.00 | 0.00 | 0.00 | 66 | 1011.5 |
| 20260505161504 | 19 | 169 | 0.0 | 0.0 | 0.00 | 0.00 | 0.00 | 68 | 1011.9 |
| 20260505161004 | 19 | 169 | 0.0 | 0.0 | 0.00 | 0.00 | 0.00 | 68 | 1011.9 |
| 20260505160504 | 19 | 117 | 0.0 | 0.0 | 0.00 | 0.00 | 0.00 | 66 | 1012.2 |
| 20260505153004 | 18 | 124 | 0.0 | 0.0 | 0.00 | 0.00 | 0.00 | 69 | 1011.9 |
| 20260505152004 | 17 | 125 | 0.0 | 1.6 | 0.00 | 0.00 | 0.00 | 69 | 1011.9 |
| 20260505151004 | 17 | 271 | 0.0 | 1.6 | 0.00 | 0.00 | 0.00 | 72 | 1011.9 |
| 20260505150504 | 17 | 271 | 0.0 | 0.0 | 0.00 | 0.00 | 0.00 | 75 | 1011.9 |
| 20260505140504 | 20 | 282 | 8.0 | 16.1 | 0.00 | 0.00 | 0.00 | 55 | 1011.5 |
| 20260505125006 | 22 | 294 | 3.2 | 8.0 | 0.00 | 0.00 | 0.00 | 43 | 1011.5 |
| 20260505124006 | 22 | 284 | 3.2 | 9.7 | 0.00 | 0.00 | 0.00 | 41 | 1011.5 |
| 20260505123506 | 23 | 256 | 8.0 | 9.7 | 0.00 | 0.00 | 0.00 | 40 | 1011.5 |
| 20260505123006 | 23 | 302 | 1.6 | 3.2 | 0.00 | 0.00 | 0.00 | 40 | 1011.2 |
| 20260505122506 | 23 | 302 | 1.6 | 3.2 | 0.00 | 0.00 | 0.00 | 40 | 1011.2 |
| 20260505122006 | 23 | 293 | 1.6 | 3.2 | 0.00 | 0.00 | 0.00 | 40 | 1011.5 |
| 20260505121506 | 23 | 279 | 1.6 | 3.2 | 0.00 | 0.00 | 0.00 | 41 | 1011.9 |
| 20260505121005 | 23 | 279 | 1.6 | 3.2 | 0.00 | 0.00 | 0.00 | 41 | 1011.9 |
| 20260505120506 | 22 | 280 | 3.2 | 8.0 | 0.00 | 0.00 | 0.00 | 41 | 1011.9 |
| 20260505120006 | 22 | 233 | 3.2 | 8.0 | 0.00 | 0.00 | 0.00 | 42 | 1011.5 |
| 20260505115506 | 22 | 233 | 3.2 | 8.0 | 0.00 | 0.00 | 0.00 | 42 | 1011.5 |
| 20260505115006 | 22 | 294 | 0.0 | 1.6 | 0.00 | 0.00 | 0.00 | 42 | 1011.5 |
| 20260505114506 | 23 | 300 | 1.6 | 1.6 | 0.00 | 0.00 | 0.00 | 40 | 1011.5 |
| 20260505114006 | 23 | 300 | 1.6 | 1.6 | 0.00 | 0.00 | 0.00 | 40 | 1011.5 |
| 20260505113506 | 24 | 188 | 0.0 | 1.6 | 0.00 | 0.00 | 0.00 | 39 | 1011.5 |
| 20260505113006 | 25 | 327 | 0.0 | 1.6 | 0.00 | 0.00 | 0.00 | 40 | 1011.8 |
| 20260505112506 | 25 | 352 | 0.0 | 4.8 | 0.00 | 0.00 | 0.00 | 40 | 1011.9 |
| 20260505111506 | 23 | 153 | 1.6 | 4.8 | 0.00 | 0.00 | 0.00 | 42 | 1011.9 |
| 20260505111006 | 22 | 184 | 1.6 | 8.0 | 0.00 | 0.00 | 0.00 | 43 | 1011.9 |
| 20260505101505 | 23 | 69 | 1.6 | 3.2 | 0.00 | 0.00 | 0.00 | 38 | 1012.6 |
| 20260505100006 | 22 | 236 | 1.6 | 1.6 | 0.00 | 0.00 | 0.00 | 43 | 1012.5 |
| 20260505095505 | 22 | 153 | 0.0 | 1.6 | 0.00 | 0.00 | 0.00 | 43 | 1012.5 |
| 20260505095005 | 23 | 245 | 0.0 | 1.6 | 0.00 | 0.00 | 0.00 | 40 | 1012.9 |
| 20260505093506 | 23 | 115 | 1.6 | 3.2 | 0.00 | 0.00 | 0.00 | 41 | 1013.2 |
| 20260505093006 | 23 | 115 | 3.2 | 8.0 | 0.00 | 0.00 | 0.00 | 41 | 1013.2 |
| 20260505092505 | 22 | 88 | 4.8 | 8.0 | 0.00 | 0.00 | 0.00 | 43 | 1013.2 |
| 20260505092005 | 22 | 124 | 4.8 | 8.0 | 0.00 | 0.00 | 0.00 | 44 | 1013.2 |
| 20260505091505 | 22 | 124 | 4.8 | 8.0 | 0.00 | 0.00 | 0.00 | 44 | 1013.2 |
| 20260505091006 | 22 | 121 | 4.8 | 8.0 | 0.00 | 0.00 | 0.00 | 44 | 1013.2 |
| 20260505090006 | 22 | 218 | 1.6 | 8.0 | 0.00 | 0.00 | 0.00 | 46 | 1013.5 |
| 20260505085006 | 21 | 242 | 0.0 | 0.0 | 0.00 | 0.00 | 0.00 | 50 | 1013.5 |
| 20260505084505 | 21 | 242 | 0.0 | 3.2 | 0.00 | 0.00 | 0.00 | 50 | 1013.5 |
| 20260505084006 | 20 | 106 | 1.6 | 3.2 | 0.00 | 0.00 | 0.00 | 52 | 1013.5 |
| 20260505083505 | 20 | 108 | 3.2 | 3.2 | 0.00 | 0.00 | 0.00 | 54 | 1013.5 |
| 20260505082505 | 20 | 113 | 0.0 | 1.6 | 0.00 | 0.00 | 0.00 | 56 | 1013.5 |
| 20260505082006 | 18 | 109 | 1.6 | 1.6 | 0.00 | 0.00 | 0.00 | 61 | 1013.9 |
| 20260505081505 | 18 | 109 | 1.6 | 3.2 | 0.00 | 0.00 | 0.00 | 61 | 1013.9 |
| 20260505081006 | 20 | 120 | 3.2 | 3.2 | 0.00 | 0.00 | 0.00 | 58 | 1013.9 |
| 20260505080505 | 18 | 117 | 1.6 | 1.6 | 0.00 | 0.00 | 0.00 | 62 | 1013.9 |
| 20260505075506 | 18 | 118 | 1.6 | 3.2 | 0.00 | 0.00 | 0.00 | 65 | 1013.9 |
| 20260505075006 | 18 | 130 | 1.6 | 3.2 | 0.00 | 0.00 | 0.00 | 67 | 1013.9 |
| 20260505074506 | 18 | 130 | 3.2 | 9.7 | 0.00 | 0.00 | 0.00 | 67 | 1013.9 |
| 20260505072506 | 16 | 204 | 0.0 | 3.2 | 0.00 | 0.00 | 0.00 | 74 | 1014.6 |
| 20260505072006 | 16 | 97 | 1.6 | 3.2 | 0.00 | 0.00 | 0.00 | 73 | 1014.2 |
| 20260505071506 | 16 | 94 | 1.6 | 3.2 | 0.00 | 0.00 | 0.00 | 73 | 1014.2 |
| 20260505070006 | 16 | 132 | 1.6 | 4.8 | 0.00 | 0.00 | 0.00 | 75 | 1014.3 |
| 20260505065505 | 16 | 126 | 0.0 | 1.6 | 0.00 | 0.00 | 0.00 | 75 | 1014.6 |
| 20260505065005 | 15 | 242 | 0.0 | 1.6 | 0.00 | 0.00 | 0.00 | 76 | 1014.2 |
| 20260505064505 | 16 | 131 | 1.6 | 1.6 | 0.00 | 0.00 | 0.00 | 75 | 1014.2 |
| 20260505064006 | 16 | 118 | 1.6 | 1.6 | 0.00 | 0.00 | 0.00 | 73 | 1014.2 |
| 20260505063506 | 15 | 139 | 0.0 | 1.6 | 0.00 | 0.00 | 0.00 | 75 | 1014.2 |
| 20260505063005 | 15 | 251 | 1.6 | 1.6 | 0.00 | 0.00 | 0.00 | 75 | 1014.2 |
| 20260505062506 | 15 | 263 | 1.6 | 1.6 | 0.00 | 0.00 | 0.00 | 75 | 1014.2 |
| 20260505062006 | 14 | 238 | 0.0 | 0.0 | 0.00 | 0.00 | 0.00 | 79 | 1014.6 |
| 20260505061505 | 14 | 127 | 0.0 | 0.0 | 0.00 | 0.00 | 0.00 | 79 | 1014.3 |
| 20260505061006 | 14 | 101 | 0.0 | 0.0 | 0.00 | 0.00 | 0.00 | 79 | 1014.2 |
| 20260505060505 | 13 | 124 | 0.0 | 0.0 | 0.00 | 0.00 | 0.00 | 80 | 1014.6 |
| 20260505060005 | 13 | 118 | 0.0 | 1.6 | 0.00 | 0.00 | 0.00 | 80 | 1014.3 |
| 20260505055507 | 13 | 101 | 0.0 | 1.6 | 0.00 | 0.00 | 0.00 | 80 | 1014.2 |
| 20260505055006 | 13 | 123 | 0.0 | 0.0 | 0.00 | 0.00 | 0.00 | 82 | 1014.6 |
| 20260505054506 | 13 | 124 | 0.0 | 0.0 | 0.00 | 0.00 | 0.00 | 82 | 1014.6 |
| 20260505053005 | 12 | 121 | 1.6 | 1.6 | 0.00 | 0.00 | 0.00 | 82 | 1014.6 |
| 20260505052505 | 12 | 121 | 1.6 | 1.6 | 0.00 | 0.00 | 0.00 | 82 | 1014.6 |
| 20260505052006 | 12 | 114 | 0.0 | 1.6 | 0.00 | 0.00 | 0.00 | 83 | 1014.2 |
| 20260505051506 | 12 | 121 | 0.0 | 1.6 | 0.00 | 0.00 | 0.00 | 84 | 1014.5 |
| 20260505051006 | 12 | 121 | 0.0 | 0.0 | 0.00 | 0.00 | 0.00 | 85 | 1014.6 |
| 20260505041506 | 8 | 126 | 0.0 | 0.0 | 0.00 | 0.00 | 0.00 | 95 | 1014.6 |
| 20260505040505 | 8 | 126 | 0.0 | 0.0 | 0.00 | 0.00 | 0.00 | 95 | 1014.6 |
| 20260505035006 | 8 | 126 | 0.0 | 0.0 | 0.00 | 0.00 | 0.00 | 95 | 1014.6 |
| 20260505034505 | 8 | 126 | 0.0 | 0.0 | 0.00 | 0.00 | 0.00 | 95 | 1014.6 |
| 20260505033505 | 8 | 126 | 0.0 | 0.0 | 0.00 | 0.00 | 0.00 | 94 | 1014.8 |
| 20260505033005 | 8 | 126 | 0.0 | 0.0 | 0.00 | 0.00 | 0.00 | 94 | 1014.9 |
| 20260505032005 | 9 | 126 | 0.0 | 0.0 | 0.00 | 0.00 | 0.00 | 94 | 1014.9 |
| 20260505031505 | 9 | 126 | 0.0 | 0.0 | 0.00 | 0.00 | 0.00 | 94 | 1014.9 |
| 20260505031005 | 9 | 126 | 0.0 | 0.0 | 0.00 | 0.00 | 0.00 | 94 | 1014.9 |
| 20260505030505 | 9 | 126 | 0.0 | 0.0 | 0.00 | 0.00 | 0.00 | 94 | 1014.9 |
| 20260505030005 | 9 | 127 | 0.0 | 0.0 | 0.00 | 0.00 | 0.00 | 94 | 1014.9 |
| 20260505025505 | 9 | 119 | 0.0 | 0.0 | 0.00 | 0.00 | 0.00 | 94 | 1014.9 |
| 20260505025006 | 9 | 114 | 0.0 | 0.0 | 0.00 | 0.00 | 0.00 | 93 | 1014.9 |
| 20260505024505 | 10 | 114 | 0.0 | 0.0 | 0.00 | 0.00 | 0.00 | 93 | 1014.9 |
| 20260505024005 | 10 | 114 | 0.0 | 0.0 | 0.00 | 0.00 | 0.00 | 93 | 1015.1 |
| 20260505023505 | 10 | 114 | 0.0 | 0.0 | 0.00 | 0.00 | 0.00 | 93 | 1015.2 |
| 20260505023005 | 10 | 114 | 0.0 | 0.0 | 0.00 | 0.00 | 0.00 | 93 | 1015.2 |
| 20260505022505 | 10 | 125 | 0.0 | 0.0 | 0.00 | 0.00 | 0.00 | 92 | 1015.2 |
| 20260505022005 | 10 | 148 | 0.0 | 0.0 | 0.00 | 0.00 | 0.00 | 92 | 1015.2 |
| 20260505021506 | 10 | 238 | 0.0 | 0.0 | 0.00 | 0.00 | 0.00 | 92 | 1015.2 |
| 20260505021004 | 10 | 254 | 0.0 | 0.0 | 0.00 | 0.00 | 0.00 | 92 | 1015.2 |
| 20260505020505 | 10 | 293 | 0.0 | 0.0 | 0.00 | 0.00 | 0.00 | 91 | 1015.2 |
| 20260505020005 | 10 | 293 | 0.0 | 0.0 | 0.00 | 0.00 | 0.00 | 91 | 1015.2 |
| 20260505015505 | 10 | 293 | 0.0 | 0.0 | 0.00 | 0.00 | 0.00 | 91 | 1015.6 |
| 20260505015005 | 10 | 293 | 0.0 | 0.0 | 0.00 | 0.00 | 0.00 | 91 | 1015.2 |
| 20260505014505 | 11 | 293 | 0.0 | 0.0 | 0.00 | 0.00 | 0.00 | 90 | 1015.2 |
| 20260505013505 | 11 | 293 | 0.0 | 0.0 | 0.00 | 0.00 | 0.00 | 89 | 1015.6 |
| 20260505012005 | 11 | 277 | 0.0 | 0.0 | 0.00 | 0.00 | 0.00 | 88 | 1015.6 |
| 20260505011505 | 11 | 277 | 0.0 | 0.0 | 0.00 | 0.00 | 0.00 | 88 | 1015.6 |
| 20260505011005 | 11 | 277 | 0.0 | 0.0 | 0.00 | 0.00 | 0.00 | 87 | 1015.6 |
| 20260505010005 | 11 | 276 | 0.0 | 0.0 | 0.00 | 0.00 | 0.00 | 86 | 1015.6 |
| 20260505005505 | 11 | 286 | 0.0 | 0.0 | 0.00 | 0.00 | 0.00 | 85 | 1015.6 |
| 20260505004505 | 12 | 296 | 0.0 | 0.0 | 0.00 | 0.00 | 0.00 | 84 | 1015.6 |
| 20260505004005 | 12 | 267 | 0.0 | 3.2 | 0.00 | 0.00 | 0.00 | 84 | 1015.9 |
| 20260505003505 | 12 | 272 | 1.6 | 3.2 | 0.00 | 0.00 | 0.00 | 84 | 1015.9 |
| 20260505003004 | 12 | 285 | 1.6 | 3.2 | 0.00 | 0.00 | 0.00 | 83 | 1015.6 |